CAPE
0 0 0 0 0 0 0 0 65 21 0 0 0 11 453 144 1171 1917 1890 459 684 1727 1969 1553 2333 2362 2450 2634 2393 2037 1755 1575 1647 1725 1752 1812 1855 1894 1921 2027 1791 1086 716 666 418 343 341 166 145
0 0 0 0 0 0 0 27 69 20 2 0 0 158 305 1336 1686 1398 1016 496 1016 1705 1788 1480 2200 2381 2524 2562 2332 2013 1837 1808 1795 1779 1838 1873 1912 1830 1680 1759 1418 878 311 228 248 321 428 374 252
0 0 0 0 0 0 46 39 87 35 0 0 16 560 693 1490 1533 1678 1104 806 1388 1527 1416 1863 2224 2245 2317 2338 2272 2142 2025 1930 1834 1855 1903 1915 1874 1804 1790 1613 1108 634 144 86 206 400 341 410 450
0 0 0 0 0 0 0 37 66 30 0 0 0 532 1309 1239 898 1118 851 822 1126 1130 1225 1720 2093 2089 2181 2161 2219 2160 2063 1972 1932 1937 1902 1870 1717 1683 1672 1271 911 518 110 161 374 536 438 345 392
0 0 0 0 0 0 25 73 28 4 0 0 0 412 1513 1782 1484 1063 785 799 902 916 1585 1228 2033 1986 2049 2024 2019 2107 2066 1958 1930 1946 1884 1786 1669 1583 1464 1072 906 482 120 242 539 669 548 469 421
0 0 0 0 0 0 72 80 37 5 5 0 6 237 1477 2039 1450 1253 819 726 815 1087 1722 995 1838 1904 1818 1934 1946 1907 1858 1851 1853 1827 1807 1735 1582 1451 1228 972 817 490 215 363 571 733 674 614 551
0 0 0 0 0 31 31 17 45 7 2 0 1 166 1899 1983 1635 1476 1073 852 1009 1198 1377 929 748 1322 1697 1680 1620 1612 1595 1629 1646 1620 1627 1593 1478 1386 1162 908 678 415 256 331 531 693 676 569 483
0 0 0 0 0 10 81 15 38 2 7 2 19 282 1838 2172 1912 1717 1226 1004 1149 1090 1293 940 605 522 450 468 1527 1444 1369 1447 1433 1460 1477 1425 1324 1101 1029 1074 718 340 272 252 430 551 568 525 569
0 0 0 0 0 1 5 7 0 0 0 0 0 506 2019 2533 2066 1847 1485 1239 1184 926 1210 830 580 462 361 284 626 1168 1016 1178 1303 1184 1352 785 24 182 746 309 988 754 391 449 518 608 662 683 549
0 0 0 0 0 0 0 0 0 0 0 0 0 168 2146 2407 2004 1758 1630 1347 1137 957 937 780 612 633 482 354 774 244 112 89 50 26 319 28 12 500 81 599 1012 825 643 606 630 600 469 173 0
0 0 1 6 0 0 0 1 0 0 0 0 3 88 1274 1904 1778 1399 1325 1143 1102 1042 934 866 898 1404 605 444 1031 372 350 149 97 91 798 431 24 52 9 205 303 142 437 92 159 76 24 0 0
29 2 0 1 14 0 0 0 0 0 0 0 0 2 630 1475 1649 1341 1182 1068 1100 1046 1024 1123 1113 1509 1693 715 864 700 650 655 653 593 1510 1287 582 957 357 92 194 478 177 300 225 180 250 117 81
67 20 1 8 6 1 0 0 0 0 0 0 0 0 227 1092 1265 1254 977 964 921 924 1014 1156 1617 2166 2617 1987 990 1125 1215 967 1175 1271 1573 1604 1406 2049 1367 1323 783 705 679 689 837 675 838 616 654
145 52 22 4 4 0 0 0 0 0 0 0 0 0 0 975 1220 1219 1191 1111 1226 1355 1507 1473 1759 3263 2384 2606 3043 1855 1743 1553 1313 1390 1493 1980 1927 2972 1541 1708 1476 1355 1056 931 944 1238 1370 1477 1526
145 15 4 0 0 2 20 0 0 0 0 0 0 0 0 0 650 1291 1389 1600 1651 1748 1837 1964 2213 3007 3584 2945 2591 2352 1775 1557 1528 1469 2182 2185 2591 2852 2689 1429 1370 1137 1687 1422 1422 1414 1515 1301 1294
149 24 4 0 18 21 0 0 0 1 3 0 0 0 0 0 0 15 143 1677 1974 1683 1896 2228 1821 2341 3326 3699 3031 2469 2116 2164 1956 2319 1905 2090 2261 2357 2742 1766 1692 1974 2485 2019 1935 1832 1665 1636 1621
238 38 16 10 50 53 8 0 0 0 0 0 0 0 0 0 0 0 0 0 4 173 626 1230 2071 1577 3177 4075 3309 3359 3860 2684 2699 3041 2643 2436 2052 2049 2154 1879 2452 3210 2073 1809 1719 1750 2176 2054 1883
104 117 45 23 123 60 1 0 0 0 0 0 0 0 0 0 0 0 0 0 0 0 43 946 1641 2994 3727 3236 3323 2854 2618 3145 2703 3555 2479 2005 2055 1981 2251 2265 2425 2456 2376 1626 1547 2805 1766 2067 1768
108 8 53 26 26 0 0 0 0 0 0 0 0 0 0 0 0 0 0 0 0 0 313 989 1057 3465 2543 1999 2105 2121 1874 2081 2159 2137 2704 2011 2140 2142 3199 2600 2937 2605 2475 2313 2168 2176 2858 1724 1634
14 25 8 0 0 0 0 0 0 0 0 0 0 0 0 0 0 0 0 0 0 4 254 784 1319 2336 2831 1933 2534 1453 1546 1271 1477 1830 2811 2128 2193 2728 2790 2859 2452 2979 1515 2190 1725 1911 1344 795 808
0 7 1 0 0 0 0 0 0 0 0 0 0 0 0 0 0 0 0 0 0 0 221 396 1503 2716 2992 2905 2124 2187 2318 2610 1866 2564 2839 2771 2494 2228 2664 2299 1722 888 845 138 1877 976 1199 606 560
0 0 1 0 3 0 0 0 0 0 0 0 0 0 0 0 2 0 0 0 0 0 0 7 941 2426 2770 3431 2446 3822 2286 1674 1424 2094 2817 2990 2130 1737 1113 519 371 665 341 491 338 275 735 557 321
0 4 0 13 19 19 2 0 0 0 0 0 0 0 0 0 0 2 0 0 0 0 0 45 1050 2243 2920 3509 3687 2846 3147 1198 1725 2115 3425 2348 1514 431 160 318 424 510 286 470 317 282 845 373 291
0 15 3 5 25 3 1 0 0 0 0 0 0 0 0 0 0 0 0 2 8 3 0 21 600 1670 2148 2553 2889 3097 3899 3267 1566 1901 1116 467 300 224 391 161 433 401 345 139 95 473 484 821 443
0 45 35 17 2 0 1 8 0 9 0 0 0 0 0 0 0 0 0 1 11 18 62 88 373 1198 1784 2291 2148 2316 2814 3561 2170 1816 587 466 130 104 863 706 751 297 481 112 454 605 485 347 218
1 9 12 0 0 1 4 13 3 38 0 0 2 0 0 0 0 0 0 22 0 77 144 164 336 955 1360 1576 1734 1990 2094 1791 1051 932 312 75 45 187 1739 743 532 360 212 525 693 113 41 384 133
24 1 1 32 70 63 13 72 48 0 0 0 0 0 0 0 0 3 31 134 291 362 413 381 497 774 1021 1251 1649 1651 1321 1191 476 748 325 88 256 17 119 480 660 446 557 622 873 102 521 389 417
9 3 32 9 43 44 17 23 38 0 1 0 13 7 0 0 0 0 0 36 119 226 224 223 277 288 233 226 248 259 272 202 236 282 365 419 467 193 208 151 719 746 697 827 1032 306 388 587 216
8 19 5 55 81 123 103 79 175 45 20 53 31 12 0 0 0 0 0 0 0 0 2 7 6 0 0 2 8 7 16 16 33 77 109 128 221 345 384 382 298 356 967 1193 1214 1103 736 602 583
32 37 23 62 64 54 127 112 72 95 84 115 28 3 1 0 0 0 0 0 0 0 0 0 0 0 0 0 0 0 0 1 7 42 55 90 142 175 199 194 202 215 339 902 1109 803 658 671 567
CIN
-0 -0 -0 -0 -0 -0 -0 -0 -2 -1 -0 -0 -0 -6 -0 -156 -17 -59 -47 -118 -140 -205 -237 -269 -130 -106 -76 -44 -47 -63 -75 -80 -54 -44 -35 -16 -2 -0 -3 -0 -1 -39 -60 -55 -76 -84 -86 -140 -166
-0 -0 -0 -0 -0 -0 -0 -0 -1 -0 -0 -0 -1 -12 -7 -0 -33 -100 -137 -164 -173 -221 -255 -266 -169 -117 -79 -71 -65 -74 -70 -55 -48 -45 -26 -12 -4 -8 -18 -9 -23 -59 -115 -121 -109 -92 -74 -82 -111
-0 -0 -0 -0 -0 -0 -0 -0 -0 -0 -0 -0 -3 -11 -2 -12 -37 -61 -141 -172 -196 -245 -263 -243 -173 -143 -91 -71 -64 -61 -52 -46 -48 -35 -18 -7 -5 -12 -13 -11 -40 -77 -165 -202 -126 -80 -87 -81 -75
-0 -0 -0 -0 -0 -0 -0 -4 -0 -2 -0 -0 -0 -0 -28 -47 -53 -80 -172 -171 -206 -228 -254 -310 -197 -157 -104 -86 -63 -50 -43 -37 -34 -22 -12 -6 -13 -18 -9 -28 -53 -85 -180 -157 -93 -69 -80 -107 -116
-0 -0 -0 -0 -0 -0 -10 -1 -17 -0 -0 -0 -0 -0 -12 -46 -76 -124 -151 -163 -165 -204 -225 -326 -199 -170 -112 -93 -76 -53 -38 -30 -25 -18 -13 -8 -15 -21 -21 -45 -51 -91 -183 -135 -75 -58 -88 -115 -123
-0 -0 -0 -0 -0 -0 -0 -1 -22 -0 -0 -0 -17 -1 -2 -46 -78 -107 -119 -161 -141 -183 -222 -350 -217 -169 -141 -100 -73 -58 -50 -32 -28 -25 -15 -12 -22 -28 -40 -56 -73 -117 -169 -145 -111 -82 -90 -106 -130
-0 -0 -0 -0 -0 -7 -3 -6 -2 -0 -0 -0 -2 -0 -11 -19 -45 -70 -107 -111 -128 -168 -212 -328 -349 -236 -143 -123 -107 -72 -60 -45 -44 -42 -30 -27 -31 -32 -44 -68 -101 -142 -179 -167 -132 -113 -126 -148 -167
-0 -0 -0 -0 -0 -1 -2 -0 -1 -0 -0 -0 -2 -0 -5 -6 -42 -59 -53 -70 -109 -143 -185 -252 -305 -309 -313 -298 -120 -108 -78 -52 -46 -41 -33 -29 -30 -46 -56 -57 -98 -158 -180 -198 -160 -154 -157 -167 -160
-0 -0 -0 -0 -0 -1 -16 -1 -0 -0 -0 -0 -0 -2 -9 -25 -35 -30 -33 -49 -76 -110 -149 -195 -227 -255 -267 -279 -233 -142 -147 -80 -34 -46 -24 -85 -135 -150 -74 -124 -91 -113 -167 -160 -157 -151 -149 -157 -196
-0 -0 -0 -0 -0 -0 -1 -0 -1 -0 -0 -0 -0 -9 -2 -13 -12 -13 -17 -29 -50 -74 -114 -145 -183 -206 -207 -197 -184 -276 -289 -289 -283 -273 -169 -169 -93 -47 -103 -63 -95 -106 -126 -135 -142 -154 -191 -305 -0
-0 -0 -2 -15 -0 -0 -0 -0 -0 -0 -0 -0 -0 -0 -1 -9 -4 -0 -1 -13 -27 -57 -75 -87 -150 -120 -162 -139 -115 -201 -180 -208 -224 -203 -58 -100 -53 -119 -158 -83 -83 -164 -154 -166 -195 -263 -334 -0 -0
-0 -0 -0 -29 -2 -0 -0 -0 -0 -0 -0 -0 -0 -3 -0 -0 -0 -0 -0 -0 -16 -47 -57 -74 -114 -113 -66 -88 -91 -119 -96 -96 -95 -102 -7 -6 -30 -0 -35 -105 -65 -54 -91 -98 -81 -65 -74 -140 -152
-0 -0 -0 -0 -0 -1 -0 -0 -0 -0 -0 -0 -0 -0 -6 -0 -0 -0 -0 -2 -0 -32 -44 -54 -80 -78 -37 -51 -68 -48 -38 -47 -32 -27 -13 -2 -1 -0 -0 -0 -0 -1 -0 -0 -2 -2 -2 -30 -50
-1 -0 -1 -1 -2 -0 -0 -0 -0 -0 -0 -0 -0 -0 -0 -0 -0 -1 -0 -1 -1 -0 -29 -35 -49 -40 -77 -51 -3 -35 -20 -6 -16 -7 -8 -0 -0 -0 -0 -0 -0 -0 -0 -0 -0 -0 -0 -0 -0
-1 -0 -0 -0 -0 -0 -1 -0 -0 -0 -0 -0 -0 -0 -0 -0 -10 -3 -1 -0 -0 -0 -3 -13 -32 -42 -38 -58 -44 -20 -27 -26 -6 -2 -0 -0 -0 -0 -0 -0 -0 -0 -0 -0 -0 -0 -0 -3 -4
-27 -12 -0 -0 -0 -0 -0 -0 -0 -0 -8 -0 -0 -0 -0 -0 -0 -6 -278 -1 -0 -1 -0 -6 -27 -34 -41 -17 -24 -24 -12 -2 -0 -0 -0 -0 -0 -0 -0 -0 -0 -0 -1 -0 -0 -0 -0 -0 -0
-4 -20 -23 -2 -0 -2 -33 -0 -0 -0 -0 -0 -0 -0 -0 -0 -0 -0 -0 -0 -31 -51 -8 -26 -7 -25 -23 -6 -9 -2 -0 -0 -0 -19 -9 -0 -0 -3 -3 -0 -0 -2 -0 -0 -0 -0 -0 -0 -0
-8 -0 -0 -0 -0 -3 -0 -0 -0 -0 -0 -0 -0 -0 -0 -0 -0 -0 -0 -0 -0 -0 -85 -29 -20 -2 -0 -2 -3 -0 -0 -1 -1 -10 -17 -0 -0 -2 -5 -0 -0 -1 -0 -0 -0 -0 -0 -0 -0
-0 -0 -0 -1 -0 -0 -0 -0 -0 -0 -0 -0 -0 -0 -0 -0 -0 -0 -0 -0 -0 -0 -72 -65 -63 -2 -16 -24 -10 -9 -0 -0 -0 -0 -19 -0 -0 -0 -0 -0 -0 -0 -0 -0 -0 -0 -0 -0 -0
-0 -0 -0 -0 -0 -0 -0 -0 -0 -0 -0 -0 -0 -0 -0 -0 -0 -0 -0 -0 -0 -68 -62 -90 -64 -38 -40 -23 -11 -2 -0 -0 -0 -0 -17 -0 -0 -0 -0 -0 -0 -0 -0 -0 -0 -0 -7 -27 -27
-0 -0 -0 -0 -0 -0 -0 -0 -0 -0 -0 -0 -0 -0 -0 -0 -0 -0 -0 -0 -0 -0 -64 -78 -62 -37 -43 -17 -32 -22 -0 -0 -0 -15 -3 -0 -0 -6 -7 -0 -6 -32 -54 -58 -7 -28 -24 -50 -50
-0 -0 -0 -0 -0 -0 -0 -0 -0 -0 -0 -0 -0 -0 -0 -0 -12 -0 -0 -0 -0 -0 -0 -15 -58 -43 -45 -26 -5 -0 -9 -0 -0 -0 -3 -0 -0 -9 -48 -85 -99 -72 -73 -46 -62 -82 -58 -64 -76
-0 -0 -0 -0 -0 -0 -0 -0 -0 -0 -0 -0 -0 -0 -0 -0 -0 -45 -0 -0 -0 -0 -0 -71 -49 -47 -10 -21 -3 -12 -1 -0 -0 -0 -2 -0 -33 -99 -118 -112 -86 -92 -110 -59 -108 -104 -32 -71 -64
-0 -0 -0 -0 -0 -0 -0 -0 -0 -0 -0 -0 -0 -0 -0 -8 -0 -0 -0 -157 -120 -36 -0 -48 -55 -55 -45 -27 -16 -1 -0 -1 -0 -0 -39 -74 -122 -140 -98 -128 -85 -85 -80 -120 -120 -69 -61 -22 -44
-0 -0 -0 -0 -0 -0 -0 -0 -0 -1 -0 -0 -0 -0 -0 -0 -0 -0 -0 -113 -112 -101 -105 -92 -89 -78 -41 -12 -25 -6 -0 -0 -2 -8 -63 -47 -79 -100 -27 -50 -46 -72 -67 -101 -51 -21 -28 -33 -77
-0 -0 -0 -0 -0 -0 -0 -0 -0 -2 -0 -0 -0 -0 -0 -0 -0 -0 -0 -56 -3 -98 -113 -111 -98 -72 -41 -25 -13 -2 -0 -0 -3 -22 -48 -77 -66 -52 -0 -28 -29 -60 -58 -37 -16 -79 -107 -5 -50
-0 -0 -0 -0 -0 -0 -0 -4 -26 -0 -0 -0 -0 -0 -0 -0 -0 -5 -38 -54 -52 -60 -69 -75 -81 -49 -28 -6 -1 -0 -0 -0 -28 -5 -48 -81 -33 -72 -21 -5 -28 -43 -25 -13 -3 -59 -8 -12 -8
-0 -0 -0 -0 -0 -0 -9 -0 -0 -0 -0 -0 -0 -8 -0 -0 -0 -0 -0 -21 -35 -55 -68 -64 -33 -39 -49 -52 -49 -38 -38 -55 -44 -32 -48 -15 -11 -38 -35 -18 -0 -5 -2 -0 -0 -12 -2 -1 -14
-0 -0 -0 -0 -0 -0 -0 -0 -9 -4 -1 -0 -0 -0 -0 -0 -0 -0 -0 -0 -0 -0 -30 -48 -54 -0 -0 -34 -110 -93 -88 -94 -85 -63 -61 -60 -56 -43 -34 -33 -17 -0 -0 -0 -0 -0 -0 -0 -0
-0 -0 -0 -0 -0 -0 -0 -7 -0 -0 -0 -0 -1 -0 -0 -0 -0 -0 -0 -0 -0 -0 -0 -5 -0 -0 -0 -0 -0 -0 -9 -8 -162 -120 -117 -105 -87 -76 -61 -41 -32 -18 -0 -0 -0 -0 -0 -0 -0
Wind_Speed
16 16 11 7 9 9 18 21 6 5 8 4 4 10 13 17 10 11 10 9 19 21 19 18 15 14 13 12 13 14 14 14 14 14 13 12 11 11 12 11 10 10 9 8 7 7 7 7 7
14 12 9 8 12 15 15 22 12 10 8 4 3 6 9 16 15 14 11 17 19 19 18 18 16 15 14 16 15 15 15 15 14 14 13 13 13 12 12 10 9 9 8 7 7 6 6 5 5
14 14 11 10 15 18 19 23 11 9 4 6 3 7 3 11 12 14 19 18 19 18 18 18 16 16 14 14 15 15 15 14 14 14 14 13 12 12 10 9 8 7 6 6 6 5 4 4 3
9 10 10 15 22 24 28 14 14 9 8 7 5 8 10 11 8 13 19 20 18 19 18 19 16 15 15 15 14 15 15 14 14 14 13 12 12 11 9 9 8 7 6 6 5 4 3 3 2
10 10 15 18 23 26 22 5 9 11 12 7 11 7 13 8 13 18 19 18 17 18 19 18 15 15 15 16 15 15 15 14 14 14 13 12 11 11 10 9 7 6 5 5 5 4 3 2 1
12 13 17 21 23 26 21 8 9 15 12 9 7 9 15 14 15 16 18 17 17 16 18 18 15 14 14 15 14 14 15 14 14 14 13 12 11 11 10 9 8 7 7 7 7 5 4 3 3
17 16 20 24 24 24 23 11 12 16 17 13 16 13 14 17 15 15 16 16 17 16 17 16 16 14 12 12 13 12 13 13 13 13 12 11 11 10 9 8 8 7 7 7 7 7 7 6 6
15 16 24 25 20 24 16 14 12 17 17 7 5 7 20 20 15 14 16 16 16 16 18 16 15 16 14 13 11 11 11 11 11 11 11 10 9 9 9 8 8 8 8 8 8 9 9 9 8
18 16 19 26 25 15 10 9 14 4 12 4 13 5 19 21 20 16 15 16 15 15 17 17 17 16 15 15 12 10 11 9 9 10 9 10 10 11 13 11 14 11 10 9 9 9 8 9 10
17 18 25 21 7 11 2 13 11 8 13 9 7 7 10 16 17 17 17 16 17 17 17 17 16 16 15 12 15 12 12 11 11 11 12 10 11 11 11 12 13 10 10 9 10 10 9 9 10
25 23 20 21 6 5 19 10 12 7 14 14 16 16 13 13 15 16 16 17 16 16 14 16 13 14 14 12 11 8 8 8 9 13 11 11 9 8 7 7 7 8 11 8 11 10 9 11 10
26 23 27 17 9 13 17 24 14 11 16 11 2 12 11 14 16 16 16 16 16 17 15 15 15 13 12 9 10 11 9 10 9 11 12 8 7 7 7 7 9 9 8 10 9 7 9 9 9
28 23 20 21 19 14 15 23 19 13 13 16 5 5 11 14 15 17 15 18 17 17 16 15 16 13 10 8 9 9 9 10 10 11 12 10 10 7 8 7 7 7 8 8 7 8 7 8 10
14 23 23 21 16 14 13 21 25 21 18 19 16 13 11 13 16 15 11 11 15 15 16 15 16 14 13 11 9 8 7 8 8 9 10 13 9 6 8 8 8 8 7 7 7 8 7 8 10
27 22 16 17 23 18 12 23 25 25 22 13 17 17 14 13 10 14 19 13 13 12 13 14 15 15 14 14 12 8 9 9 9 9 10 12 11 8 8 8 7 8 7 7 7 8 7 8 9
23 12 17 22 29 10 13 28 30 29 20 22 20 18 16 12 12 11 16 12 11 12 15 15 14 17 15 12 11 10 9 9 9 8 9 12 11 11 8 8 8 8 5 6 7 7 8 9 10
21 12 26 27 29 13 19 18 30 13 20 24 16 17 17 14 14 11 11 11 10 10 11 14 13 15 17 13 11 10 10 9 7 3 4 12 11 12 10 8 7 4 6 6 7 7 7 7 9
19 32 32 27 29 23 19 21 17 9 23 26 27 16 19 21 17 15 13 9 11 11 9 9 11 11 11 10 10 9 9 6 7 3 4 10 10 10 9 9 7 2 7 7 7 6 7 9 10
32 24 30 19 21 24 21 20 17 16 17 21 21 17 17 16 17 16 15 15 14 10 11 10 10 9 8 10 10 10 10 9 11 10 9 12 11 13 10 9 9 8 8 6 6 7 9 9 9
26 22 18 24 13 19 23 23 19 18 23 20 20 19 14 13 13 13 12 15 11 11 11 11 11 10 10 8 7 7 8 10 10 10 8 11 11 11 9 9 6 7 6 6 5 7 8 8 9
23 20 11 21 14 14 17 23 21 22 20 24 24 24 20 13 7 9 14 11 13 14 13 13 12 11 10 9 7 7 7 9 8 5 7 10 12 10 10 7 5 4 4 6 7 6 7 8 8
23 18 15 17 16 16 19 9 23 20 22 20 21 13 12 12 9 12 11 11 12 12 13 12 12 12 12 11 10 11 10 10 10 11 10 10 11 10 10 8 8 6 5 2 3 5 5 5 8
19 18 18 11 16 14 24 11 11 24 20 20 18 19 8 8 6 7 8 5 3 6 7 10 11 12 11 12 11 10 12 10 8 9 10 9 9 10 11 9 8 6 5 4 4 5 5 6 7
19 19 14 15 14 16 17 15 11 13 17 24 22 17 12 7 4 2 4 4 4 3 5 5 10 10 11 12 13 10 10 11 10 9 9 9 9 9 9 9 7 6 5 5 5 6 7 7 6
21 13 12 13 14 12 20 16 11 18 18 17 16 14 9 6 3 2 2 3 1 1 2 5 7 8 9 10 10 12 12 10 8 9 9 10 9 8 9 8 7 7 7 7 6 6 6 6 7
24 20 13 13 14 15 10 9 13 13 13 7 14 11 7 5 7 4 6 4 6 4 2 2 5 5 6 8 11 8 8 6 7 9 9 8 7 8 9 9 8 9 9 9 7 7 8 8 8
23 22 24 13 10 8 14 11 7 14 13 12 12 10 7 6 5 5 9 8 8 8 7 6 5 5 4 2 2 5 7 10 9 10 3 5 4 4 7 10 10 10 10 9 9 9 9 9 8
21 20 19 11 12 13 14 16 12 17 15 13 12 11 7 6 6 8 7 7 10 9 9 8 9 8 7 6 5 5 5 2 1 1 4 6 6 6 7 7 10 11 11 11 10 11 11 11 10
18 20 18 13 13 8 11 5 22 19 18 15 11 9 7 5 6 6 8 7 7 9 10 7 7 7 6 4 3 1 2 3 3 4 6 7 8 9 10 11 12 12 12 12 12 12 13 14 13
18 16 20 11 16 11 7 8 6 16 14 14 11 6 7 4 4 6 7 6 8 8 9 8 6 6 6 3 3 3 3 4 3 5 6 7 9 10 11 13 14 15 16 14 15 16 16 16 17
Wind_Direction
271 239 245 254 246 232 247 232 262 139 190 63 289 272 342 68 60 111 119 127 128 126 137 143 124 126 127 126 130 130 131 136 140 137 133 131 131 127 120 121 119 116 115 119 122 125 128 126 123
289 281 245 267 242 249 230 242 203 232 65 292 199 225 246 65 72 109 130 128 129 133 145 144 132 131 135 131 132 133 136 139 138 135 136 137 137 134 132 134 129 123 125 131 130 130 128 125 127
258 255 265 231 236 246 251 213 156 173 148 234 233 288 80 62 93 136 117 139 127 140 150 134 137 132 133 132 134 134 136 137 137 138 140 141 140 136 133 136 132 126 130 133 137 133 129 132 133
243 225 244 254 243 230 259 288 166 146 190 204 256 157 81 63 120 115 142 141 143 143 143 135 136 133 135 139 137 136 138 141 141 142 143 145 141 133 134 138 137 136 140 146 149 149 158 165 173
233 255 232 229 236 255 230 198 289 210 208 194 192 158 109 100 105 132 145 141 150 145 128 149 137 138 142 146 144 141 142 146 146 145 146 148 144 140 143 145 140 140 146 154 164 172 186 200 236
228 231 239 235 227 237 258 266 218 247 210 190 207 175 127 125 142 141 148 147 144 140 131 144 144 143 146 147 149 148 148 153 151 149 151 153 149 149 152 151 155 159 165 173 178 188 206 222 233
237 221 237 246 233 223 236 216 252 248 244 217 207 215 124 153 137 142 150 148 136 141 141 152 162 155 145 145 148 152 154 157 156 155 156 155 155 156 158 165 169 171 175 181 187 194 205 220 231
229 248 240 240 252 234 215 225 223 241 246 89 310 205 161 131 149 145 150 151 146 152 144 156 162 167 171 168 154 156 161 161 159 157 157 155 153 161 169 171 184 183 188 194 197 205 209 221 232
228 243 237 231 233 259 232 215 218 321 293 220 185 24 72 130 148 161 156 156 157 162 148 161 166 167 177 166 164 161 167 165 157 159 160 161 192 182 171 200 159 184 197 204 212 217 227 236 233
226 239 219 242 256 250 297 220 222 208 228 234 220 110 126 154 161 166 166 166 165 168 161 159 168 166 177 167 153 183 177 186 189 186 178 205 211 187 208 174 168 185 202 216 221 223 227 230 254
208 232 233 238 7 270 304 260 261 242 253 225 207 185 163 173 179 176 177 170 169 167 167 159 171 165 186 178 156 183 180 187 191 194 183 216 203 193 207 169 187 208 204 221 205 211 229 233 241
229 213 252 261 250 254 277 313 239 265 252 353 80 334 176 185 188 188 186 167 170 167 170 163 171 171 202 182 173 182 191 189 190 195 190 207 227 200 213 219 200 193 192 218 234 220 221 238 250
228 224 225 270 215 247 278 293 297 250 283 299 230 219 261 204 194 205 191 165 167 168 172 178 169 176 189 225 182 198 202 185 194 186 191 216 212 214 210 235 242 212 211 208 229 234 255 241 242
214 226 240 258 265 251 239 260 299 286 257 268 269 256 221 229 209 202 186 180 163 169 170 178 177 174 189 207 229 193 203 197 209 198 197 206 225 215 228 220 229 248 246 260 243 236 248 236 249
202 206 216 234 256 253 254 263 251 270 274 250 271 247 246 218 244 201 186 187 177 176 178 184 184 176 193 199 209 213 202 222 196 221 193 193 216 232 230 232 227 233 233 250 268 276 262 263 266
205 179 221 229 234 217 173 243 244 252 315 296 240 263 225 216 237 242 239 151 197 208 186 188 193 183 193 201 200 215 219 201 228 206 203 203 210 232 212 239 228 234 232 233 234 247 247 249 254
174 196 228 226 205 150 196 239 235 288 294 289 265 227 263 215 214 214 226 183 203 205 188 197 199 199 189 201 207 209 216 221 222 188 218 177 210 211 232 227 227 230 244 249 253 260 286 288 274
197 209 223 217 183 178 198 242 221 262 272 276 284 249 220 218 220 206 215 229 208 200 214 203 195 206 185 188 207 217 217 196 251 182 214 182 209 209 196 230 245 216 241 239 243 246 284 304 302
203 220 221 247 188 187 212 225 203 216 259 261 289 274 257 246 228 214 203 217 217 206 192 206 212 191 197 194 198 208 214 205 217 213 192 205 199 204 201 233 179 216 247 262 290 272 252 258 265
238 234 214 226 192 205 203 219 228 213 211 236 260 267 264 243 259 236 242 239 199 209 213 202 207 201 197 198 222 221 217 219 212 214 175 206 202 208 209 224 226 198 246 217 272 281 288 291 294
231 241 199 228 156 208 241 211 217 209 218 224 220 245 218 234 238 246 238 238 221 219 206 209 204 188 193 210 193 206 219 237 193 182 175 196 206 206 204 190 238 182 232 257 197 231 261 281 294
213 220 216 206 181 208 207 231 189 199 204 208 255 227 225 230 216 245 193 211 214 217 207 210 197 198 188 204 194 198 211 206 201 208 164 187 195 184 185 181 190 207 242 336 254 247 261 283 285
225 196 226 224 223 253 184 222 236 187 200 204 211 239 218 207 215 180 190 162 200 184 209 190 191 190 199 195 236 189 232 208 191 204 151 166 183 185 181 190 194 193 215 221 240 266 256 278 278
218 210 191 228 228 225 223 210 188 184 202 185 194 214 197 155 195 150 138 180 166 191 221 200 188 195 202 203 209 222 214 251 189 189 167 182 181 188 197 187 191 196 217 228 242 238 243 259 288
205 186 194 200 216 229 203 226 226 188 173 186 190 162 135 168 165 215 73 343 55 157 231 206 194 204 209 204 214 223 233 228 190 173 191 188 186 184 174 199 192 199 211 236 230 226 256 260 260
204 195 217 188 205 211 219 211 212 142 107 64 115 123 152 204 89 80 56 31 54 58 47 180 159 211 202 217 217 209 207 199 210 203 201 199 201 192 152 186 211 218 215 212 223 231 236 243 234
191 216 234 282 290 239 157 105 84 114 142 161 145 135 141 127 124 108 99 83 67 69 80 87 88 104 142 138 171 182 172 211 218 179 241 215 252 254 189 191 211 224 226 228 223 233 243 236 246
206 201 218 235 257 221 160 165 178 168 164 163 141 144 143 132 120 110 92 93 103 98 83 69 94 100 91 104 124 156 174 237 329 317 253 286 305 272 277 238 215 226 236 235 232 241 237 236 242
200 205 221 225 222 218 241 152 133 165 166 159 158 145 148 132 111 109 104 101 88 76 83 86 113 120 107 113 114 132 280 287 276 274 274 278 278 271 265 260 260 249 235 239 242 246 258 265 241
206 215 201 222 215 243 259 82 17 127 145 135 146 144 114 101 105 96 93 81 79 71 89 82 64 77 83 71 82 59 358 338 331 312 308 304 290 283 276 273 268 266 262 253 235 242 248 243 246